Stanley, ND

5:33 AM CST on February 24, 2017 (GMT -0600)
Stanley

Weather History for K08D - April, 2014

Change the Weather History Date:

Tuesday, April 1, 2014

  Actual Average (KMIB) Record (KMIB)
Temperature  
Mean Temperature 18 °F -  
Max Temperature 32 °F 40 °F 71 °F (2012)
Min Temperature 3 °F 21 °F -1 °F (2013)
Degree Days  
Heating Degree Days 48    
Moisture  
Dew Point 0 °F    
Average Humidity 52    
Maximum Humidity 85    
Minimum Humidity 20    
Precipitation  
Precipitation 0.00 in - - ()
Sea Level Pressure  
Sea Level Pressure 30.05 in    
Wind  
Wind Speed 6 mph (East)    
Max Wind Speed 13 mph    
Max Gust Speed -    
Visibility 10 miles    
Events      
Averages and records for this station are not official NWS values.
T = Trace of Precipitation, MM = Missing Value Source: NWS Daily Summary

Daily Weather History Graph

Daily Weather History Graph

Search for Another Location

Airport or City:

Trip Planner

Search our weather history database for the weather conditions in past years. The results will help you decide how hot, cold, wet, or windy it might be!

Date:

Astronomy

Apr. 01, 2014 Rise Set
Actual Time 7:27 AM CDT 8:20 PM CDT
Civil Twilight 6:55 AM CDT 8:51 PM CDT
Nautical Twilight 6:18 AM CDT 9:29 PM CDT
Astronomical Twilight 5:38 AM CDT 10:10 PM CDT
Moon 8:22 AM CDT (4/1) 10:56 PM CDT (4/1)
Length of Visible Light 13h 55m
Length of Day
12h 52m
Waxing Crescent, 5% of the Moon is Illuminated
Apr 1
Waxing Crescent
Apr 7
First Quarter
Apr 15
Full
Apr 22
Last Quarter
Apr 29
New

Hourly Weather History & Observations

Time (CDT) Temp. Windchill Dew Point Humidity Pressure Visibility Wind Dir Wind Speed Gust Speed Precip Events Conditions
12:15 AM 8.6 °F -3.7 °F 1.4 °F 73% 30.10 in 10.0 mi North 8.1 mph - N/A   Clear
12:35 AM 8.6 °F -5.5 °F 1.4 °F 73% 30.10 in 10.0 mi North 10.4 mph - N/A   Clear
12:55 AM 8.6 °F -5.5 °F 1.4 °F 73% 30.09 in 10.0 mi NNE 10.4 mph - N/A   Clear
1:15 AM 8.6 °F -2.6 °F 1.4 °F 73% 30.09 in 10.0 mi North 6.9 mph - N/A   Clear
1:35 AM 8.6 °F -4.7 °F 1.4 °F 73% 30.09 in 10.0 mi North 9.2 mph - N/A   Clear
1:55 AM 8.6 °F -4.7 °F 1.4 °F 73% 30.09 in 10.0 mi NNE 9.2 mph - N/A   Clear
2:15 AM 8.6 °F -2.6 °F 1.4 °F 73% 30.09 in 10.0 mi North 6.9 mph - N/A   Clear
2:35 AM 8.6 °F -3.7 °F 1.4 °F 73% 30.09 in 10.0 mi NNE 8.1 mph - N/A   Clear
2:55 AM 8.6 °F -2.6 °F 1.4 °F 73% 30.08 in 10.0 mi NNE 6.9 mph - N/A   Clear
3:15 AM 8.6 °F -2.6 °F -0.4 °F 67% 30.08 in 10.0 mi NNE 6.9 mph - N/A   Clear
3:35 AM 6.8 °F -4.8 °F -0.4 °F 72% 30.08 in 10.0 mi NNE 6.9 mph - N/A   Clear
3:55 AM 6.8 °F -2.0 °F -0.4 °F 72% 30.08 in 10.0 mi NNE 4.6 mph - N/A   Clear
4:15 AM 6.8 °F -2.0 °F -0.4 °F 72% 30.08 in 10.0 mi NNE 4.6 mph - N/A   Clear
4:35 AM 6.8 °F -2.0 °F -0.4 °F 72% 30.07 in 10.0 mi NNE 4.6 mph - N/A   Clear
4:55 AM 6.8 °F -2.0 °F -0.4 °F 72% 30.07 in 10.0 mi NNE 4.6 mph - N/A   Clear
5:15 AM 6.8 °F -2.0 °F -0.4 °F 72% 30.06 in 10.0 mi NNE 4.6 mph - N/A   Clear
5:35 AM 3.2 °F -6.2 °F -0.4 °F 85% 30.06 in 10.0 mi North 4.6 mph - N/A   Clear
5:55 AM 5.0 °F -6.9 °F 1.4 °F 85% 30.06 in 10.0 mi NNE 6.9 mph - N/A   Clear
6:15 AM 6.8 °F -3.5 °F -0.4 °F 72% 30.05 in 10.0 mi NE 5.8 mph - N/A   Clear
6:35 AM 5.0 °F -8.1 °F -0.4 °F 78% 30.05 in 10.0 mi NE 8.1 mph - N/A   Clear
6:55 AM 5.0 °F -6.9 °F -0.4 °F 78% 30.05 in 10.0 mi NE 6.9 mph - N/A   Clear
7:15 AM 5.0 °F -5.6 °F -0.4 °F 78% 30.05 in 10.0 mi NNE 5.8 mph - N/A   Clear
7:35 AM 5.0 °F -6.9 °F -0.4 °F 78% 30.06 in 10.0 mi NNE 6.9 mph - N/A   Clear
7:55 AM 6.8 °F -4.8 °F -0.4 °F 72% 30.06 in 10.0 mi NNE 6.9 mph - N/A   Clear
8:15 AM 6.8 °F -2.0 °F -0.4 °F 72% 30.06 in 10.0 mi NNE 4.6 mph - N/A   Clear
8:35 AM 8.6 °F -2.6 °F -0.4 °F 67% 30.06 in 10.0 mi NE 6.9 mph - N/A   Clear
8:55 AM 8.6 °F 0.1 °F -0.4 °F 67% 30.06 in 10.0 mi NNE 4.6 mph - N/A   Clear
9:15 AM 10.4 °F 4.0 °F -0.4 °F 62% 30.07 in 10.0 mi North 3.5 mph - N/A   Clear
9:35 AM 10.4 °F 4.0 °F -0.4 °F 62% 30.07 in 10.0 mi NE 3.5 mph - N/A   Clear
9:55 AM 14.0 °F 8.2 °F -0.4 °F 53% 30.07 in 10.0 mi NNE 3.5 mph - N/A   Clear
10:15 AM 14.0 °F - -0.4 °F 53% 30.07 in 10.0 mi Calm Calm - N/A   Clear
10:35 AM 15.8 °F 10.2 °F -0.4 °F 49% 30.07 in 10.0 mi ESE 3.5 mph - N/A   Clear
10:55 AM 15.8 °F 8.6 °F -0.4 °F 49% 30.07 in 10.0 mi ESE 4.6 mph - N/A   Clear
11:15 AM 17.6 °F 10.7 °F -0.4 °F 45% 30.07 in 10.0 mi ENE 4.6 mph - N/A   Clear
11:35 AM 17.6 °F 12.3 °F -2.2 °F 42% 30.06 in 10.0 mi ESE 3.5 mph - N/A   Scattered Clouds
11:55 AM 19.4 °F 14.3 °F -5.8 °F 33% 30.06 in 10.0 mi East 3.5 mph - N/A   Partly Cloudy
12:15 PM 21.2 °F 13.6 °F -2.2 °F 36% 30.05 in 10.0 mi SSE 5.8 mph - N/A   Clear
12:35 PM 23.0 °F 18.4 °F -4.0 °F 31% 30.05 in 10.0 mi East 3.5 mph - N/A   Clear
12:55 PM 24.8 °F - -7.6 °F 24% 30.05 in 10.0 mi Calm Calm - N/A   Clear
1:15 PM 24.8 °F - -9.4 °F 22% 30.05 in 10.0 mi Calm Calm - N/A   Clear
1:35 PM 24.8 °F 19.1 °F -7.6 °F 24% 30.05 in 10.0 mi SE 4.6 mph - N/A   Clear
1:55 PM 26.6 °F 21.2 °F -7.6 °F 22% 30.04 in 10.0 mi SE 4.6 mph - N/A   Clear
2:15 PM 28.4 °F 21.2 °F -7.6 °F 21% 30.04 in 10.0 mi South 6.9 mph - N/A   Clear
2:35 PM 28.4 °F 23.3 °F -7.6 °F 21% 30.03 in 10.0 mi SSW 4.6 mph - N/A   Clear
2:55 PM 28.4 °F - -7.6 °F 21% 30.02 in 10.0 mi Calm Calm - N/A   Clear
3:15 PM 28.4 °F 20.4 °F -5.8 °F 23% 30.02 in 10.0 mi South 8.1 mph - N/A   Clear
3:35 PM 30.2 °F 23.4 °F -4.0 °F 23% 30.01 in 10.0 mi SSE 6.9 mph - N/A   Clear
3:55 PM 32.0 °F 25.6 °F -4.0 °F 21% 30.01 in 10.0 mi South 6.9 mph - N/A   Clear
4:15 PM 32.0 °F 27.5 °F -4.0 °F 21% 30.01 in 10.0 mi South 4.6 mph - N/A   Clear
4:35 PM 32.0 °F 27.5 °F -4.0 °F 21% 30.00 in 10.0 mi SSE 4.6 mph - N/A   Clear
4:55 PM 32.0 °F 27.5 °F -4.0 °F 21% 30.00 in 10.0 mi SE 4.6 mph - N/A   Clear
5:15 PM 32.0 °F 28.7 °F -5.8 °F 20% 30.00 in 10.0 mi SE 3.5 mph - N/A   Clear
5:35 PM 32.0 °F 28.7 °F -4.0 °F 21% 30.00 in 10.0 mi SE 3.5 mph - N/A   Clear
5:55 PM 32.0 °F 26.4 °F -2.2 °F 23% 30.00 in 10.0 mi South 5.8 mph - N/A   Partly Cloudy
6:15 PM 32.0 °F 27.5 °F -2.2 °F 23% 30.00 in 10.0 mi SSE 4.6 mph - N/A   Partly Cloudy
6:35 PM 32.0 °F 27.5 °F -0.4 °F 25% 30.00 in 10.0 mi SSE 4.6 mph - N/A   Clear
6:55 PM 32.0 °F 24.8 °F 1.4 °F 27% 30.00 in 10.0 mi South 8.1 mph - N/A   Clear
7:15 PM 30.2 °F 20.2 °F 6.8 °F 37% 30.01 in 10.0 mi South 12.7 mph - N/A   Clear
7:35 PM 28.4 °F 19.1 °F 5.0 °F 37% 30.02 in 10.0 mi South 10.4 mph - N/A   Clear
7:55 PM 26.6 °F 18.2 °F 6.8 °F 43% 30.02 in 10.0 mi SSW 8.1 mph - N/A   Clear
8:15 PM 24.8 °F 16.1 °F 6.8 °F 46% 30.02 in 10.0 mi South 8.1 mph - N/A   Clear
8:35 PM 23.0 °F 14.7 °F 8.6 °F 54% 30.03 in 10.0 mi South 6.9 mph - N/A   Clear
8:55 PM 19.4 °F 11.5 °F 6.8 °F 58% 30.04 in 10.0 mi SSW 5.8 mph - N/A   Clear
9:15 PM 19.4 °F 14.3 °F 5.0 °F 54% 30.04 in 10.0 mi SSW 3.5 mph - N/A   Clear
9:35 PM 19.4 °F - 5.0 °F 54% 30.05 in 10.0 mi Calm Calm - N/A   Clear
9:55 PM 17.6 °F 12.3 °F 5.0 °F 58% 30.05 in 10.0 mi South 3.5 mph - N/A   Clear
10:15 PM 17.6 °F 10.7 °F 5.0 °F 58% 30.05 in 10.0 mi SSW 4.6 mph - N/A   Clear
10:35 PM 17.6 °F 10.7 °F 5.0 °F 58% 30.05 in 10.0 mi SSW 4.6 mph - N/A   Clear
10:55 PM 15.8 °F 7.2 °F 1.4 °F 53% 30.05 in 10.0 mi SSW 5.8 mph - N/A   Clear
11:15 PM 15.8 °F 7.2 °F 3.2 °F 58% 30.05 in 10.0 mi South 5.8 mph - N/A   Clear
11:35 PM 15.8 °F 10.2 °F 3.2 °F 58% 30.06 in 10.0 mi South 3.5 mph - N/A   Clear
11:55 PM 15.8 °F - 3.2 °F 58% 30.06 in 10.0 mi Calm Calm - N/A   Clear